Погода в Илюшине

Россия / Калининградская область     54°34′36″N   22°31′11″E
темп.,
°C
ветер,
м/с
пор.,
м/с
влажн.,
%
обл.,
%
осадки,
мм/ч
давл.,
гПа
погр.,
м
28 сентября, вт
вт2823:00+7вюв410874 0.0 1026255
02:00+6юв39910 0.0 1027201
05:00+6юв39910 0.0 1027194
08:00+7юв410810 0.0 1027290
11:00+13юв57580 0.0 10281089
14:00+15юв565118 0.0 10271400
17:00+13вюв48622 0.0 1027467
20:00+8юв4107878 0.0 1028200
29 сентября, ср
ср2923:00+8юв41183100 0.0 1029230
02:00+7юв41080100 0.0 1029220
05:00+7юв4108596 0.0 1029201
08:00+8юв410805 0.0 1029310
11:00+13юв69585 0.0 10291047
14:00+15юв685397 0.0 10281647
17:00+13юв6106384 0.0 1027842
20:00+10юв613675 0.0 1027548
30 сентября, чт
чт3023:00+9юв615775 0.0 1026523
02:00+8юв7167712 0.0 1026500
05:00+8юв7167830 0.0 1025464
08:00+9ююв61573100 0.0 1024544
11:00+10ю51173100 0.2 1026623
14:00+8ю5991100 1.9 1026405
17:00+9ю4796100 3.6 1026211
20:00+8ю379796 4.1 1027141
1 октября, пт
пт123:00+8ююз3594100 0.0 102890
02:00+6юз34878 0.0 102948
05:00+5ююз33860 0.0 102940
08:00+7ю25830 0.0 1029114
11:00+13ю45625 0.0 1028538
14:00+15ю454872 0.0 10271160
17:00+12ююв366126 0.0 1026178
20:00+9ююв3776100 0.0 1026120
2 октября, сб
сб223:00+9ююв51290100 0.0 1024291
02:00+8ююв41183100 0.0 1023248
05:00+8ююв51387100 0.0 1021289
08:00+9ююв6138791 0.0 1020346
11:00+15ю7136341 0.0 1019554
14:00+18ю71158100 0.0 10171047
17:00+16ю61267100 0.0 1017722
20:00+14ю71574100 0.0 1017487